This is the latest recevied weather packets stored in our database for station/object AA7VG. If no packets are shown the sender has not sent any weather packets the latest 10 day(s).
| Time | Temp. | Humidity | Pressure | Rain* | Wind** | Luminosity | Snow |
|---|---|---|---|---|---|---|---|
| 1787885897 | 19.44° C | 61% | 1015.4 hPa | 0 mm | - | - | - |
| 1787885596 | 19.44° C | 63% | 1015.4 hPa | 0 mm | - | - | - |
| 1787885295 | 19.44° C | 64% | 1016 hPa | 0 mm | - | - | - |
| 1787884989 | 19.44° C | 63% | 1016 hPa | 0 mm | - | - | - |
| 1787884684 | 19.44° C | 63% | 1015.9 hPa | 0 mm | - | - | - |
| 1787884375 | 20° C | 61% | 1015.8 hPa | 0 mm | - | - | - |
| 1787884075 | 20° C | 60% | 1016.1 hPa | 0 mm | - | - | - |
| 1787883770 | 20° C | 59% | 1016.1 hPa | 0 mm | - | - | - |
| 1787883466 | 20.56° C | 57% | 1015.5 hPa | 0 mm | - | - | - |
| 1787883164 | 20.56° C | 57% | 1015.8 hPa | 0 mm | - | - | - |
| 1787882860 | 21.11° C | 55% | 1016.2 hPa | 0 mm | - | - | - |
| 1787882557 | 21.67° C | 56% | 1015.8 hPa | 0 mm | - | - | - |
| 1787882253 | 21.67° C | 52% | 1016.2 hPa | 0 mm | - | - | - |
| 1787881953 | 21.67° C | 50% | 1015.4 hPa | 0 mm | - | - | - |
| 1787881653 | 21.67° C | 52% | 1015.6 hPa | 0 mm | - | - | - |
| 1787881349 | 21.67° C | 52% | 1015.9 hPa | 0 mm | - | - | - |
| 1787881044 | 21.67° C | 51% | 1015.6 hPa | 0 mm | - | - | - |
| 1787880739 | 21.67° C | 51% | 1015.9 hPa | 0 mm | - | - | - |
| 1787880437 | 20.56° C | 53% | 1015.4 hPa | 0 mm | - | - | - |
| 1787880132 | 20.56° C | 56% | 1015.5 hPa | 0 mm | - | - | - |
| 1787879827 | 20.56° C | 57% | 1015.5 hPa | 0 mm | - | - | - |
| 1787879523 | 21.11° C | 56% | 1016.1 hPa | 0 mm | - | - | - |
| 1787879218 | 21.67° C | 55% | 1015.5 hPa | 0 mm | - | - | - |
| 1787878916 | 21.67° C | 51% | 1015.5 hPa | 0 mm | - | - | - |
| 1787878614 | 21.11° C | 51% | 1015.9 hPa | 0 mm | - | - | - |
* Rain latest hour (hover to see other rain measurements)
** Current wind speed in m/s (hover to see current wind gust speed)